When you browse on this site, cookies collect data to enhance your experience and personalize the content and advertising you see.
Visit our Privacy Policy to learn more. By continuing to use the site, you agree to this use of cookies and data.
  • In Slovakia
  • List of Countries
  • For 7 days
  • Water Temperature
  • Satellite Maps
  • Weather Map
  • Weather Widgets
  • user-avatar
    Login

    Hourly Weather Kryry

    Today, 14 December, Friday

    Time Temperature Precipitation Wind Pressure Humidity
    00:00 -1°C° 0 mm 1 mps 743 mmHg 90%
    01:00 -2°C° 0 mm 1 mps 743 mmHg 91%
    02:00 -2°C° 0 mm 1 mps 743 mmHg 91%
    03:00 -2°C° 0 mm 1 mps 743 mmHg 91%
    04:00 -2°C° 0 mm 1 mps 743 mmHg 91%
    05:00 -2°C° 0 mm 1 mps 743 mmHg 92%
    06:00 -2°C° 0 mm 1 mps 743 mmHg 92%
    07:00 -1°C° 0 mm 1 mps 743 mmHg 91%
    08:00 -3°C° 0 mm 2 mps 743 mmHg 88%
    09:00 -2°C° 0 mm 2 mps 744 mmHg 85%
    10:00 -2°C° 0 mm 2 mps 744 mmHg 82%
    11:00 -2°C° 0 mm 2 mps 744 mmHg 79%
    12:00 -1°C° 0 mm 3 mps 744 mmHg 77%
    13:00 -1°C° 0 mm 3 mps 744 mmHg 75%
    14:00 -2°C° 0 mm 3 mps 744 mmHg 78%
    15:00 -2°C° 0 mm 2 mps 744 mmHg 81%
    16:00 -3°C° 0 mm 2 mps 744 mmHg 84%
    17:00 -3°C° 0 mm 2 mps 744 mmHg 86%
    18:00 -3°C° 0 mm 2 mps 744 mmHg 88%
    19:00 -4°C° 0 mm 2 mps 744 mmHg 90%
    20:00 -4°C° 0 mm 2 mps 744 mmHg 91%
    21:00 -3°C° 0 mm 2 mps 744 mmHg 91%
    22:00 -3°C° 0 mm 2 mps 744 mmHg 91%
    23:00 -4°C° 0 mm 3 mps 744 mmHg 91%

    Tomorrow, 15 December, Saturday

    Time Temperature Precipitation Wind Pressure Humidity
    00:00 -4°C° 0 mm 3 mps 744 mmHg 90%
    01:00 -4°C° 0 mm 3 mps 744 mmHg 90%
    02:00 -4°C° 0 mm 3 mps 744 mmHg 90%
    03:00 -4°C° 0 mm 3 mps 744 mmHg 90%
    04:00 -4°C° 0 mm 3 mps 744 mmHg 89%
    05:00 -4°C° 0 mm 3 mps 744 mmHg 89%
    06:00 -4°C° 0 mm 3 mps 744 mmHg 89%
    07:00 -4°C° 0 mm 3 mps 744 mmHg 89%
    08:00 -4°C° 0 mm 3 mps 744 mmHg 86%
    09:00 -4°C° 0 mm 4 mps 744 mmHg 83%
    10:00 -4°C° 0 mm 4 mps 744 mmHg 81%
    11:00 -4°C° 0 mm 4 mps 744 mmHg 80%
    12:00 -3°C° 0 mm 4 mps 744 mmHg 79%
    13:00 -4°C° 0 mm 5 mps 744 mmHg 77%
    14:00 -3°C° 0 mm 4 mps 744 mmHg 78%
    15:00 -4°C° 0 mm 4 mps 744 mmHg 80%
    16:00 -4°C° 0 mm 4 mps 744 mmHg 81%
    17:00 -4°C° 0 mm 4 mps 743 mmHg 81%
    18:00 -4°C° 0 mm 4 mps 743 mmHg 82%
    19:00 -4°C° 0 mm 4 mps 743 mmHg 82%
    20:00 -4°C° 0 mm 4 mps 743 mmHg 83%
    21:00 -4°C° 0 mm 4 mps 743 mmHg 84%
    22:00 -4°C° 0 mm 3 mps 743 mmHg 85%
    23:00 -4°C° 0.1 mm 3 mps 742 mmHg 86%

    Day after tomorrow, 16 December, Sunday

    Time Temperature Precipitation Wind Pressure Humidity
    00:00 -5°C° 0.1 mm 3 mps 742 mmHg 87%
    01:00 -5°C° 0.1 mm 3 mps 742 mmHg 88%
    02:00 -4°C° 0 mm 2 mps 741 mmHg 89%
    03:00 -4°C° 0 mm 2 mps 741 mmHg 89%
    04:00 -4°C° 0 mm 2 mps 741 mmHg 90%
    05:00 -2°C° 0 mm 1 mps 741 mmHg 90%
    06:00 -2°C° 0 mm 1 mps 741 mmHg 90%
    07:00 -2°C° 0 mm 1 mps 741 mmHg 91%
    08:00 -2°C° 0 mm 1 mps 741 mmHg 88%
    09:00 -1°C° 0 mm 1 mps 741 mmHg 85%
    10:00 -1°C° 0 mm 1 mps 741 mmHg 82%
    11:00 0°C° 0 mm 1 mps 740 mmHg 79%
    12:00 +1°C° 0 mm 1 mps 740 mmHg 77%
    13:00 +1°C° 0 mm 1 mps 740 mmHg 74%
    14:00 +1°C° 0 mm 1 mps 740 mmHg 77%
    15:00 0°C° 0 mm 1 mps 740 mmHg 81%
    16:00 -3°C° 0 mm 2 mps 740 mmHg 84%
    17:00 -3°C° 0 mm 2 mps 740 mmHg 84%
    18:00 -3°C° 0 mm 2 mps 740 mmHg 85%
    19:00 -3°C° 0 mm 2 mps 740 mmHg 85%
    20:00 -3°C° 0 mm 2 mps 741 mmHg 85%
    21:00 -3°C° 0 mm 2 mps 741 mmHg 85%
    22:00 -3°C° 0 mm 2 mps 741 mmHg 84%
    23:00 -3°C° 0 mm 2 mps 741 mmHg 84%

    17 December, Monday

    Time Temperature Precipitation Wind Pressure Humidity
    00:00 -3°C° 0 mm 2 mps 741 mmHg 83%
    01:00 -3°C° 0 mm 2 mps 741 mmHg 82%
    02:00 -3°C° 0 mm 2 mps 741 mmHg 81%
    03:00 -3°C° 0 mm 2 mps 741 mmHg 80%
    04:00 -2°C° 0 mm 2 mps 741 mmHg 79%
    05:00 -2°C° 0 mm 2 mps 741 mmHg 80%
    06:00 -2°C° 0 mm 2 mps 741 mmHg 80%
    07:00 -2°C° 0 mm 2 mps 742 mmHg 80%
    08:00 -2°C° 0 mm 2 mps 742 mmHg 79%
    09:00 -1°C° 0 mm 2 mps 742 mmHg 77%
    10:00 -1°C° 0 mm 2 mps 743 mmHg 76%
    11:00 +2°C° 0 mm 1 mps 743 mmHg 76%
    12:00 +2°C° 0 mm 1 mps 743 mmHg 76%
    13:00 +2°C° 0 mm 1 mps 743 mmHg 75%
    14:00 +2°C° 0 mm 1 mps 743 mmHg 78%
    15:00 +1°C° 0 mm 1 mps 743 mmHg 81%
    16:00 -1°C° 0 mm 0 mps 744 mmHg 83%
    17:00 -1°C° 0 mm 0 mps 744 mmHg 83%
    18:00 0°C° 0 mm 1 mps 744 mmHg 84%
    19:00 0°C° 0 mm 1 mps 745 mmHg 84%
    20:00 -1°C° 0 mm 0 mps 745 mmHg 84%
    21:00 -1°C° 0 mm 0 mps 745 mmHg 85%
    22:00 -1°C° 0 mm 0 mps 746 mmHg 85%
    23:00 -1°C° 0 mm 0 mps 746 mmHg 86%

    18 December, Tuesday

    Time Temperature Precipitation Wind Pressure Humidity
    00:00 -1°C° 0 mm 0 mps 746 mmHg 86%
    01:00 -2°C° 0 mm 0 mps 746 mmHg 86%
    02:00 -2°C° 0 mm 0 mps 746 mmHg 87%
    03:00 -2°C° 0 mm 0 mps 746 mmHg 87%
    04:00 -1°C° 0 mm 1 mps 746 mmHg 87%
    05:00 -1°C° 0 mm 1 mps 746 mmHg 87%
    06:00 -1°C° 0 mm 1 mps 746 mmHg 87%
    07:00 -1°C° 0 mm 1 mps 746 mmHg 88%
    08:00 0°C° 0 mm 1 mps 746 mmHg 85%
    09:00 +1°C° 0 mm 1 mps 746 mmHg 83%
    10:00 +1°C° 0 mm 1 mps 746 mmHg 81%
    11:00 +2°C° 0 mm 1 mps 746 mmHg 80%
    12:00 +3°C° 0 mm 1 mps 746 mmHg 79%
    13:00 +3°C° 0 mm 1 mps 746 mmHg 78%
    14:00 +2°C° 0 mm 1 mps 746 mmHg 81%
    15:00 +1°C° 0 mm 1 mps 746 mmHg 85%
    16:00 0°C° 0 mm 1 mps 746 mmHg 88%
    17:00 0°C° 0 mm 1 mps 745 mmHg 88%
    18:00 -2°C° 0 mm 2 mps 745 mmHg 88%
    19:00 -2°C° 0 mm 2 mps 745 mmHg 89%
    20:00 -2°C° 0 mm 2 mps 745 mmHg 88%
    21:00 -3°C° 0 mm 2 mps 745 mmHg 88%
    22:00 -3°C° 0 mm 2 mps 745 mmHg 87%
    23:00 -3°C° 0 mm 2 mps 745 mmHg 87%

    19 December, Wednesday

    Time Temperature Precipitation Wind Pressure Humidity
    00:00 -3°C° 0 mm 2 mps 744 mmHg 86%
    01:00 -3°C° 0 mm 2 mps 744 mmHg 85%
    02:00 -3°C° 0 mm 2 mps 744 mmHg 85%
    03:00 -3°C° 0 mm 2 mps 743 mmHg 84%
    04:00 -3°C° 0 mm 2 mps 743 mmHg 84%
    05:00 -3°C° 0 mm 2 mps 743 mmHg 83%
    06:00 -3°C° 0 mm 2 mps 743 mmHg 82%
    07:00 -3°C° 0 mm 2 mps 743 mmHg 81%
    08:00 -2°C° 0 mm 2 mps 743 mmHg 78%
    09:00 -1°C° 0 mm 2 mps 743 mmHg 76%
    10:00 +1°C° 0 mm 2 mps 743 mmHg 73%
    11:00 +1°C° 0 mm 2 mps 742 mmHg 72%
    12:00 +2°C° 0 mm 2 mps 742 mmHg 71%
    13:00 +2°C° 0 mm 3 mps 741 mmHg 70%
    14:00 +1°C° 0 mm 3 mps 741 mmHg 72%
    15:00 +2°C° 0 mm 2 mps 741 mmHg 74%
    16:00 +1°C° 0 mm 2 mps 741 mmHg 76%
    17:00 0°C° 0 mm 3 mps 741 mmHg 77%
    18:00 0°C° 0 mm 3 mps 741 mmHg 78%
    19:00 0°C° 0 mm 3 mps 741 mmHg 80%
    20:00 0°C° 0 mm 3 mps 741 mmHg 80%
    21:00 -1°C° 0 mm 3 mps 741 mmHg 80%
    22:00 -1°C° 0 mm 3 mps 741 mmHg 81%
    23:00 -1°C° 0 mm 3 mps 741 mmHg 81%
    Show more